Location: ?
(34.5636°N, 135.5560°E)
Time: 10:04:55
(UTC+00:00)

Daily predictions for brighter satellites

Satellite Brightness Start Highest point End
(mag) Time Altitude Azimuth Time Altitude Azimuth Time Altitude Azimuth
ADEOS II 4.4 17:21:04 10° NNE 17:22:22 18° NNE 17:22:22 18° NNE
Cosmos 2333 Rocket 4.4 17:28:04 10° N 17:32:18 21° ENE 17:36:31 10° ESE
IDEFIX/ARIANE 42P 3.7 17:52:15 10° NNE 17:56:10 39° ENE 17:56:10 39° ENE
SJ 16-02 3.6 18:10:36 19° N 18:10:36 19° N 18:11:51 10° N
Cosmos 1937 Rocket 4.1 18:13:35 53° NE 18:13:35 53° NE 18:17:38 10° NNE
Cosmos 2219 4.5 18:12:13 31° SE 18:13:40 35° ESE 18:18:49 10° NE
Tsikada Rocket 4.0 18:19:45 76° NW 18:19:45 76° NW 18:25:47 10° N
Cosmos 2297 Rocket 3.9 18:16:59 20° SE 18:19:41 29° ESE 18:24:28 10° NE
BREEZE-M DEB (TANK) 4.0 18:21:13 32° ENE 18:21:13 32° ENE 18:22:39 10° ENE
Okean 1-7 4.1 18:29:21 41° ESE 18:29:41 41° E 18:33:48 10° NNE
Lacrosse 5 rocket 3.4 18:33:33 19° N 18:33:33 19° N 18:35:01 10° NNE
Cosmos 1634 Rocket 4.3 18:28:17 10° N 18:34:23 62° E 18:40:28 10° SSE
OAO 1 4.4 18:35:46 75° SSE 18:35:46 75° SSE 18:40:54 10° ESE
COSMOS 2428 3.1 18:29:48 10° NNW 18:35:27 63° ENE 18:41:04 10° SSE
ASTRO E2 4.4 18:37:48 27° ESE 18:37:48 27° ESE 18:39:56 10° E
STARLINK-81 4.5 18:39:03 47° NE 18:39:03 47° NE 18:41:59 10° NE
STARLINK-54 4.4 18:40:53 47° NE 18:40:53 47° NE 18:43:50 10° NE
COBE Rocket 3.8 18:39:41 84° SE 18:39:51 87° ENE 18:44:41 10° N
STARLINK-77 4.3 18:42:15 51° NE 18:42:15 51° NE 18:45:18 10° NE
Cosmos 2242 Rocket 4.3 18:42:36 46° NNW 18:42:36 46° NNW 18:45:55 10° N
STARLINK-25 4.2 18:43:51 52° NE 18:43:51 52° NE 18:46:58 10° NE
Cosmos 2227 Rocket 3.2 18:40:50 19° SSE 18:44:26 42° ESE 18:49:43 10° NE
STARLINK-71 4.2 18:45:41 51° NNE 18:45:41 51° NNE 18:48:48 10° NE
STARLINK-1048 4.0 18:46:18 59° NNE 18:46:18 59° NNE 18:49:45 10° NE
STARLINK-79 4.1 18:47:00 56° NNE 18:47:00 56° NNE 18:50:15 10° NE
COSMOS 2441 4.3 18:41:34 10° NNE 18:46:22 80° ESE 18:47:10 61° S
STARLINK-78 4.0 18:48:37 57° NNE 18:48:37 57° NNE 18:51:56 10° NE
STARLINK-1023 4.0 18:48:35 58° N 18:48:35 58° N 18:52:09 10° NE
STARLINK-57 4.0 18:50:21 56° NNE 18:50:21 56° NNE 18:53:41 10° NE
USA 234 3.1 18:43:44 10° SE 18:50:16 81° SW 18:56:51 10° NW
STARLINK-1049 3.9 18:51:05 63° N 18:51:05 63° N 18:54:42 10° NE
Okean 1 3.4 18:51:20 74° ENE 18:51:20 74° ENE 18:55:06 10° N
STARLINK-49 3.9 18:51:44 59° NNE 18:51:44 59° NNE 18:55:09 10° NE
STARLINK-27 3.8 18:53:21 59° N 18:53:21 59° N 18:56:50 10° NE
Cosmos 2219 Rocket 2.0 18:47:52 10° NNW 18:53:29 84° WSW 18:59:03 10° SSE
STARLINK-74 3.8 18:54:57 60° N 18:54:57 60° N 18:58:29 10° NE
Cosmos 158 Rocket 3.9 18:49:25 10° NNW 19:01:44 - S 18:54:19 60° W
STARLINK-1051 3.8 18:55:52 62° NNW 18:55:52 62° NNW 18:59:39 10° NE
STARLINK-39 3.8 18:56:33 59° N 18:56:33 59° N 19:00:09 10° NE
Cosmos 1743 3.1 18:53:46 10° N 18:57:37 61° E 19:00:57 13° SSE
STARLINK-31 3.8 18:58:10 58° NNW 18:58:10 58° NNW 19:01:49 10° NE
STARLINK-69 3.9 18:59:59 51° NNW 18:59:59 51° NNW 19:03:37 10° NE
GPS 2-04 Rocket1 2.6 19:00:08 75° NNE 19:00:08 75° NNE 19:03:44 10° E
CBERS 1 LM4 rocket 4.3 18:55:25 10° N 19:00:14 68° WNW 19:01:13 53° SW
SL-4 R/B 4.0 18:57:24 12° NNW 19:00:33 28° NE 19:04:17 10° E
NOSS 3-2 (A) 3.8 18:57:30 24° S 19:00:45 56° ESE 19:06:41 10° NE
STARLINK-21 3.8 19:01:23 54° NNW 19:01:23 54° NNW 19:05:08 10° NE
STARLINK-45 4.0 19:03:14 47° NNW 19:03:14 47° NNW 19:06:58 10° NE
STARLINK-70 3.9 19:04:40 48° NW 19:04:40 48° NW 19:08:29 10° NE
STARLINK-1028 3.8 19:05:26 52° NW 19:05:31 52° NW 19:09:35 10° NE
STARLINK-76 3.9 19:06:08 49° NW 19:06:08 49° NW 19:10:03 10° NE
STARLINK-1007 4.0 19:07:33 48° NW 19:07:46 48° NW 19:11:50 10° NE
STARLINK-23 3.9 19:07:44 47° NW 19:07:48 48° NW 19:11:42 10° NE
STARLINK-32 3.9 19:09:21 46° NW 19:09:28 46° NW 19:13:22 10° NE
SeaSat 1 2.4 19:04:47 10° SSE 19:09:43 83° ENE 19:14:40 10° NNW
STARLINK-1021 4.0 19:10:12 46° NW 19:10:30 47° NW 19:14:31 10° NE
STARLINK-40 4.0 19:10:56 44° NW 19:11:08 44° NW 19:15:00 10° NNE
BREEZE-M DEB (TANK) 3.6 19:06:55 10° NW 19:11:27 48° NE 19:15:29 10° ESE
STARLINK-44 4.0 19:12:31 42° NW 19:12:47 43° NW 19:16:38 10° NNE
STARLINK-37 4.2 19:14:15 38° NW 19:14:34 39° NW 19:18:22 10° NNE
STARLINK-1019 4.1 19:15:00 40° WNW 19:15:30 43° NW 19:19:28 10° NNE
STARLINK-36 4.1 19:15:40 39° NW 19:16:05 40° NW 19:19:54 10° NNE
H-2A R/B 4.3 19:12:34 10° NE 19:16:16 31° E 19:19:51 10° SSE
Cosmos 2333 Rocket 2.3 19:11:23 10° NW 19:16:47 47° WSW 19:22:09 10° S
STARLINK-68 4.3 19:17:31 34° NW 19:17:58 35° NW 19:21:43 10° NNE
PSLV R/B 3.9 19:14:28 10° N 19:18:34 42° WNW 19:19:08 40° W
STARLINK-63 4.3 19:19:00 34° WNW 19:19:32 36° NW 19:23:16 10° NNE
STARLINK-1012 4.3 19:19:47 35° WNW 19:20:30 39° NW 19:24:24 10° NNE
STARLINK-35 4.3 19:20:27 34° WNW 19:21:04 36° NW 19:24:49 10° NNE
CZ-4B R/B 3.6 19:23:45 15° NW 19:23:45 15° NW 19:24:34 10° NNW
ATLAS 5 CENTAUR R/B 3.7 19:13:25 10° SSW 19:21:25 37° SE 19:24:26 10° ENE
CZ-4B R/B 4.4 19:18:19 10° NNE 19:22:17 40° E 19:26:24 10° S
STARLINK-51 4.4 19:22:03 32° WNW 19:22:44 35° NW 19:26:28 10° NNE
Cosmos 1484 Rocket 4.3 19:20:47 10° NNE 19:24:22 36° E 19:27:53 10° SSE
STARLINK-30 4.4 19:23:38 31° WNW 19:24:24 34° NW 19:28:06 10° NNE
STARLINK-72 4.5 19:25:09 30° WNW 19:25:58 33° NW 19:29:39 10° NNE
NOSS 3-2 (C) 4.0 19:20:44 10° S 19:26:05 53° ESE 19:32:01 10° NE
Cosmos 1782 Rocket 3.4 19:23:36 10° NNW 19:27:55 71° W 19:32:13 10° S
Nadezhda 4 Rocket 4.4 19:23:00 10° S 19:29:12 67° E 19:35:28 10° NNE
Cosmos 1703 Rocket 4.4 19:29:37 29° W 19:30:02 30° WNW 19:34:00 10° NNW
CENTAUR R/B 3.3 19:27:05 10° S 19:32:24 47° ESE 19:38:31 10° NE
STARLINK-1020 4.4 19:29:55 18° SSW 19:32:46 48° SE 19:36:46 10° NE
MSX 4.5 19:28:06 10° N 19:33:14 34° WNW 19:36:02 22° WSW
Cosmos 389 Rocket 2.8 19:29:50 10° S 19:33:25 70° E 19:37:00 10° NNE
Cosmos 2279 Rocket 3.9 19:27:43 10° N 19:33:55 70° W 19:40:06 10° S
Cosmos 2221 Rocket 3.6 19:30:24 10° S 19:34:53 88° E 19:39:22 10° N
Cosmos 1689 Rocket 2.4 19:34:58 32° SW 19:35:52 43° W 19:38:46 10° NNW
Meteor 2-4 Rocket 3.9 19:30:00 10° S 19:35:52 83° E 19:41:50 10° N
IDEFIX/ARIANE 42P 3.9 19:32:52 10° NNW 19:36:24 19° WNW 19:36:59 19° WNW
ALOS 3.6 19:32:11 10° NNE 19:36:36 41° E 19:40:59 10° SSE
CZ-2C R/B 2.4 19:32:52 10° N 19:37:17 48° WNW 19:40:50 15° SW
STARLINK-1052 4.2 19:34:43 17° SSW 19:37:44 55° SE 19:41:47 10° NE
NOSS 0 Rocket 3.9 19:35:11 10° NNW 19:41:16 66° WSW 19:47:20 10° S
Hubble Space Telescope 2.7 19:44:13 14° SSW 19:44:58 15° SSW 19:47:19 10° SSE
Cosmos 2180 Rocket 4.4 19:39:25 10° N 19:45:35 73° W 19:51:48 10° S
Cosmos 2237 Rocket 2.2 19:41:07 10° NNW 19:46:49 86° WSW 19:52:30 10° SSE
STARLINK-1033 3.8 19:44:16 15° SW 19:47:39 69° SE 19:51:46 10° NE
Sich 1 Rocket 3.5 19:44:46 10° NNW 19:49:06 60° W 19:53:23 10° S
Okean 3 3.5 19:49:33 10° SSW 19:53:39 55° W 19:57:46 10° N
TIMED 4.4 19:52:18 10° NNW 19:56:40 73° WSW 20:01:00 10° S
STARLINK-1024 3.6 19:53:50 12° SW 19:57:35 87° SE 20:01:45 10° NE
Cosmos 2219 4.2 19:54:11 15° WSW 19:57:48 28° WNW 20:02:41 10° N
Okean O Rocket 4.4 19:54:41 10° NE 19:58:01 21° E 20:01:21 10° SE
PSLV R/B 4.1 19:56:43 10° S 20:00:48 51° W 20:04:55 10° NNW
Cosmos 2151 Rocket 3.9 19:58:03 10° N 20:02:27 70° E 20:06:48 10° SSE
STARLINK-1035 3.6 19:58:39 11° SW 20:02:35 84° NW 20:06:45 10° NE
Okean 2 Rocket 3.0 19:58:43 10° N 20:03:12 73° W 20:07:40 10° S
Cosmos 1674 Rocket 3.9 19:58:47 10° S 20:03:12 73° E 20:07:37 10° N
Cosmos 2297 Rocket 3.0 19:58:50 12° SW 20:03:33 33° WNW 20:08:38 10° N
SJ-12 4.1 20:01:01 10° NNE 20:05:08 77° ESE 20:09:12 10° S
Meteor 2-9 Rocket 4.4 20:00:37 10° NNW 20:06:17 52° W 20:11:56 10° SSW
METEOR-M 4.3 20:01:01 10° NNE 20:06:22 81° ESE 20:11:43 10° S
Meteor 1-31 Rocket 3.3 20:03:10 10° N 20:06:50 38° WNW 20:10:28 10° SW
STARLINK-1032 3.6 20:03:24 10° SW 20:07:32 76° NW 20:11:41 10° NE
STARLINK-1011 3.7 20:08:25 10° SW 20:12:31 68° NW 20:16:39 10° NE
ASTRO E2 3.0 20:12:37 10° W 20:16:26 54° S 20:20:19 10° ESE
Meteor PRIRODA 3.8 20:13:54 10° N 20:17:26 50° WNW 20:20:58 10° SSW
STARLINK-1036 3.7 20:13:25 10° WSW 20:17:30 61° NW 20:21:37 10° NE
COSMOS 2428 4.2 20:16:10 10° WNW 20:19:03 14° W 20:21:56 10° SW
Meteor 1-4 Rocket 2.6 20:15:54 10° SSW 20:19:33 62° W 20:23:18 10° N
ATLAS 3B R/B 3.2 20:13:34 10° SSW 20:20:11 64° ESE 20:26:44 10° NE
USA 238 DEB 4.3 20:15:25 10° WSW 20:21:30 37° NW 20:27:47 10° NNE
USA 238 4.3 20:15:32 10° WSW 20:21:37 38° NW 20:27:54 10° NNE
Cosmos 1048 Rocket 4.1 20:16:50 10° NNW 20:22:04 61° WSW 20:27:21 10° S
STARLINK-1044 3.9 20:18:25 10° WSW 20:22:28 54° NW 20:26:32 10° NE
Cosmos 1125 Rocket 4.2 20:18:01 10° SW 20:22:48 34° WNW 20:27:36 10° N
Meteor 1-23 Rocket 4.4 20:21:25 10° S 20:27:02 83° E 20:32:47 10° N
